FLOCK 4V-1 (46313 NORAD) Tracking and Keplerian Element Data

This shows tracking and keplerian element data for the satellite.

Feedback or suggestion? Click here.




ElementValue
Catalog46313
NameFLOCK 4V-1
Epoch Orbit1373
Epoch Day338.54137617
Epoch Year2020
RAAN50.0398
Inclination97.5106
Eccentricity0.0002294
Argument of Perigee348.9252
Mean Anonmoly11.1927
Mean Motion15.1097592
Decay Rate2.024E-05
L11 46313U 20061AT 20338.54137617 .00002024 00000-0 12509-3 0 9994
L22 46313 97.5106 50.0398 0002294 348.9252 11.1927 15.10975920 13736

Live tracking and technical data element details for FLOCK 4V-1 (NORAD 46313). FLOCK 4V-1 can be tracked NOW for your location showing map with azimuth and elevation plus other details from your city location.

Track the satellite on the map from your city or location and see movement details for azimuth, elevation, latitude, longitude, range, height, and movement on the map or in text.







IsCatalogInMostPopularTable: catalog: 46313, numindb: 23
Update: records affected: 1



GetName: 46313 FLOCK 4V-1

Hit Count: updated at: Sat, 05 Dec 2020 05:51:23 GMT